Weather History for KRKS - July, 2013

Change the Weather History Date:

Tuesday, July 16, 2013

  Actual Average Record
Temperature  
Mean Temperature 79 °F 70 °F  
Max Temperature 93 °F 84 °F 96 °F (2006)
Min Temperature 64 °F 55 °F 46 °F (1999)
Degree Days  
Heating Degree Days 0 1  
Month to date heating degree days 0 19  
Since 1 June heating degree days 62 186  
Since 1 July heating degree days 0 19  
Cooling Degree Days 14 5  
Month to date cooling degree days 117 65  
Year to date cooling degree days 211 101  
Since 1 June cooling degree days 210 100  
Growing Degree Days 28 (Base 50)    
Moisture  
Dew Point 42 °F    
Average Humidity 30    
Maximum Humidity 48    
Minimum Humidity 11    
Precipitation  
Precipitation T in 0.02 in 0.28 in (1975)
Month to date precipitation 0.20 0.31  
Year to date precipitation 1.69 4.83  
Sea Level Pressure  
Sea Level Pressure 29.91 in    
Wind  
Wind Speed 12 mph (ENE)    
Max Wind Speed 26 mph    
Max Gust Speed 33 mph    
Visibility 10 miles    
Events Thunderstorm    
T = Trace of Precipitation, MM = Missing Value Source: NWS Daily Summary

Daily Weather History Graph

Daily Weather History Graph

Search for Another Location

Airport or City:

Trip Planner

Search our weather history database for the weather conditions in past years. The results will help you decide how hot, cold, wet, or windy it might be!

Date:

Astronomy

Jul. 16, 2013 Rise Set
Actual Time 5:56 AM MDT 8:47 PM MDT
Civil Twilight 5:23 AM MDT 9:20 PM MDT
Nautical Twilight 4:41 AM MDT 10:02 PM MDT
Astronomical Twilight 3:53 AM MDT 10:49 PM MDT
Moon 2:31 PM MDT (7/16) 12:30 AM MDT (7/16)
Length of Visible Light 15h 57m
Length of Day
14h 51m
First Quarter, 57% of the Moon is Illuminated
Jul 16
First Quarter
Jul 22
Full
Jul 29
Last Quarter
Aug 6
New
Aug 14
First Quarter

Hourly Weather History & Observations

Time (MDT) Temp. Dew Point Humidity Pressure Visibility Wind Dir Wind Speed Gust Speed Precip Events Conditions
12:54 AM 72.0 °F 46.9 °F 41% 29.84 in 10.0 mi Calm Calm - N/A   Clear
1:54 AM 71.1 °F 46.9 °F 42% 29.83 in 10.0 mi Calm Calm - N/A   Clear
2:54 AM 69.1 °F 46.0 °F 44% 29.84 in 10.0 mi ENE 3.5 mph - N/A   Clear
3:54 AM 70.0 °F 46.0 °F 42% 29.84 in 10.0 mi ESE 10.4 mph - N/A   Clear
4:54 AM 66.9 °F 46.0 °F 47% 29.86 in 10.0 mi SSE 3.5 mph - N/A   Scattered Clouds
5:54 AM 64.9 °F 45.0 °F 48% 29.88 in 10.0 mi SE 4.6 mph - N/A   Clear
6:54 AM 66.9 °F 46.0 °F 47% 29.90 in 10.0 mi NE 5.8 mph - N/A   Partly Cloudy
7:54 AM 70.0 °F 46.0 °F 42% 29.91 in 10.0 mi SE 3.5 mph - N/A   Clear
8:54 AM 73.9 °F 46.0 °F 37% 29.91 in 10.0 mi ENE 4.6 mph - N/A   Clear
9:54 AM 78.1 °F 46.9 °F 33% 29.91 in 10.0 mi North 6.9 mph - N/A   Clear
10:54 AM 82.0 °F 46.0 °F 28% 29.90 in 10.0 mi NE 8.1 mph - N/A   Clear
11:54 AM 86.0 °F 42.1 °F 21% 29.88 in 10.0 mi NNE 9.2 mph 21.9 mph N/A   Clear
12:54 PM 89.1 °F 37.0 °F 16% 29.87 in 10.0 mi ENE 13.8 mph 23.0 mph N/A   Clear
1:54 PM 91.0 °F 36.0 °F 14% 29.85 in 10.0 mi ESE 18.4 mph 33.4 mph N/A   Partly Cloudy
2:54 PM 89.1 °F 33.1 °F 14% 29.85 in 10.0 mi ENE 9.2 mph 24.2 mph N/A   Partly Cloudy
3:54 PM 91.0 °F 30.0 °F 11% 29.83 in 10.0 mi ENE 5.8 mph 18.4 mph N/A   Clear
4:54 PM 88.0 °F 34.0 °F 15% 29.84 in 10.0 mi East 20.7 mph 26.5 mph N/A   Partly Cloudy
5:54 PM 87.1 °F 35.1 °F 16% 29.85 in 10.0 mi East 16.1 mph - N/A   Clear
6:54 PM 84.9 °F 36.0 °F 17% 29.86 in 10.0 mi ENE 13.8 mph - N/A   Overcast
7:08 PM 84.2 °F 37.4 °F 19% 30.16 in 10.0 mi East 9.2 mph - N/A Thunderstorm Overcast
7:54 PM 78.1 °F 44.1 °F 30% 29.91 in 10.0 mi West 25.3 mph 31.1 mph N/A   Overcast
8:54 PM 73.9 °F 45.0 °F 35% 29.92 in 10.0 mi West 23.0 mph 29.9 mph 0.00 in   Mostly Cloudy
9:54 PM 69.1 °F 48.9 °F 49% 29.95 in 10.0 mi South 6.9 mph - N/A   Clear
10:41 PM 69.8 °F 44.6 °F 40% 30.26 in 10.0 mi NE 21.9 mph 28.8 mph N/A   Clear
10:54 PM 69.1 °F 45.0 °F 42% 29.96 in 10.0 mi ENE 19.6 mph 29.9 mph N/A   Clear
11:54 PM 66.9 °F 46.9 °F 49% 29.97 in 10.0 mi NE 24.2 mph 33.4 mph N/A   Clear